Content
SEND FEEDBACK

Daily
Averages
Monthly
Summary
United States of America

MADERA, CALIFORNIA


Home > North America > United States > California
Elevation: 253 feet     Latitude: 36 59N     Longitude: 120 06W

WEATHER
 
SELECT A DAY
Number of Records: 155,216;   Date Range: 9/2/98 - 12/18/14
 
SHARE

PRINT THIS DATA

[ ← Previous Day ]
WEATHER ALMANAC - APRIL 24, 2013
[ Next Day → ]
[ °C ]   °F
Weather ElementAverageHighLow
Temperature67.9 °F87.1 °F (3:53 pm)46.9 °F (6:53 am)
Dewpoint41.8 °F48 °F (10:53 pm)34 °F (3:53 pm)
Humidity45.4 %83 % (6:53 am)15 % (3:53 pm)
Barometer29.80 in29.85 in (8:53 am)29.73 in (4:53 pm)
Wind Speed6.4 mph13.8 mph (4:53 pm)
Wind Gust25.3 mph (4:53 pm)
Weather ElementAverage
Visibility10 mi
Wind DirectionSSW (191.8 °)

Weather ElementTotal
Precipitation---
Cooling Degree Days2 (Base 65)
Growing Degree Days17 (Base 50)
Averaged from 22 records on April 24, 2013
WEATHER CONDITIONS BREAKOUT
WIND DIRECTION BREAKOUT
WEATHER BY HOUR - APRIL 24, 2013
[ °C ]   °F
Local TimeTemperatureDewpointHumidityBarometerVisibilityWind DirectionWind SpeedGust SpeedPrecipitationEventsConditions
1:53 AM54.0 °F41.0 °F62 %29.82 in10.0 miNW (320°)4.6 mphClear
3:53 AM51.1 °F42.1 °F71 %29.80 in10.0 miCalmClear
4:53 AM48.0 °F42.1 °F80 %29.80 in10.0 miWest (270°)4.6 mphClear
5:53 AM48.9 °F43.0 °F80 %29.82 in10.0 miCalmClear
6:53 AM46.9 °F42.1 °F83 %29.82 in10.0 miWest (270°)8.1 mphClear
7:53 AM55.9 °F43.0 °F62 %29.84 in10.0 miNNW (330°)5.8 mphClear
8:53 AM62.1 °F43.0 °F50 %29.85 in10.0 miNW (320°)4.6 mphClear
9:53 AM71.1 °F42.1 °F35 %29.84 in10.0 miNW (320°)8.1 mphClear
10:53 AM75.0 °F39.9 °F28 %29.84 in10.0 miVariable5.8 mphClear
11:53 AM78.1 °F39.9 °F25 %29.83 in10.0 miVariable5.8 mphClear
12:53 PM81.0 °F42.1 °F25 %29.80 in10.0 miNW (310°)8.1 mphClear
1:53 PM82.9 °F41.0 °F23 %29.78 in10.0 miWest (270°)5.8 mphClear
2:53 PM84.9 °F36.0 °F17 %29.77 in10.0 miNW (320°)4.6 mphClear
3:53 PM87.1 °F34.0 °F15 %29.75 in10.0 miWNW (300°)8.1 mphClear
4:53 PM87.1 °F35.1 °F16 %29.73 in10.0 miNW (310°)13.8 mph25.3 mphClear
5:53 PM84.9 °F36.0 °F17 %29.73 in10.0 miNW (310°)10.4 mph25.3 mphClear
6:53 PM80.1 °F41.0 °F25 %29.75 in10.0 miWNW (290°)8.1 mphClear
7:53 PM69.1 °F46.9 °F45 %29.77 in10.0 miWest (280°)9.2 mphClear
8:53 PM64.9 °F46.0 °F50 %29.79 in10.0 miNorthClear
9:53 PM62.1 °F46.9 °F58 %29.82 in10.0 miNorthClear
10:53 PM60.1 °F48.0 °F64 %29.83 in10.0 miNorthClear
11:53 PM59.0 °F48.0 °F67 %29.85 in10.0 miVariable6.9 mphClear
Hourly data recorded from KMAE, located miles away from Madera, California







STORIES FROM OUR PARTNERS